QPF
0.00 0.00 0.00 0.00 0.00 0.00 0.01 0.01 0.01 0.01 0.01 0.01 0.01 0.00 0.00 0.00 0.00 0.00 0.00 0.00 0.00 0.00 0.00 0.01 0.01 0.02 0.02 0.01 0.01 0.01 0.01 0.01 0.01 0.01 0.01 0.01 0.01 0.01 0.03 0.04 0.06 0.07 0.04
0.00 0.00 0.00 0.00 0.00 0.00 0.01 0.01 0.01 0.01 0.01 0.01 0.01 0.01 0.00 0.00 0.00 0.00 0.00 0.00 0.00 0.00 0.00 0.00 0.00 0.01 0.01 0.01 0.01 0.00 0.01 0.01 0.01 0.01 0.01 0.01 0.01 0.02 0.03 0.04 0.06 0.06 0.05
0.00 0.00 0.00 0.00 0.00 0.00 0.00 0.01 0.01 0.01 0.01 0.01 0.01 0.01 0.00 0.00 0.00 0.00 0.00 0.00 0.00 0.00 0.00 0.00 0.00 0.00 0.01 0.01 0.00 0.00 0.00 0.01 0.01 0.01 0.02 0.04 0.02 0.01 0.03 0.04 0.05 0.06 0.07
0.00 0.00 0.00 0.00 0.00 0.00 0.00 0.00 0.01 0.01 0.01 0.01 0.01 0.00 0.00 0.00 0.00 0.00 0.00 0.00 0.00 0.00 0.00 0.00 0.00 0.00 0.00 0.00 0.00 0.00 0.00 0.01 0.01 0.01 0.03 0.02 0.02 0.01 0.02 0.04 0.05 0.07 0.07
0.00 0.00 0.00 0.00 0.00 0.00 0.00 0.00 0.00 0.00 0.01 0.01 0.01 0.00 0.00 0.00 0.00 0.00 0.00 0.00 0.00 0.00 0.00 0.00 0.00 0.00 0.00 0.00 0.00 0.00 0.00 0.01 0.01 0.01 0.01 0.02 0.05 0.02 0.02 0.03 0.05 0.08 0.06
0.00 0.00 0.00 0.00 0.00 0.00 0.00 0.00 0.00 0.00 0.00 0.00 0.00 0.00 0.00 0.00 0.01 0.00 0.00 0.00 0.00 0.00 0.00 0.00 0.00 0.00 0.00 0.00 0.00 0.00 0.01 0.01 0.01 0.01 0.01 0.02 0.03 0.02 0.02 0.03 0.05 0.06 0.06
0.00 0.00 0.00 0.01 0.01 0.00 0.00 0.00 0.00 0.00 0.00 0.00 0.00 0.00 0.00 0.00 0.00 0.00 0.01 0.01 0.01 0.01 0.01 0.01 0.01 0.01 0.00 0.00 0.00 0.00 0.01 0.01 0.01 0.01 0.01 0.02 0.03 0.02 0.03 0.03 0.04 0.04 0.04
0.01 0.01 0.01 0.01 0.01 0.01 0.01 0.00 0.01 0.01 0.01 0.01 0.01 0.01 0.01 0.01 0.01 0.01 0.01 0.01 0.01 0.01 0.01 0.01 0.01 0.01 0.01 0.00 0.00 0.00 0.01 0.01 0.01 0.01 0.01 0.02 0.02 0.02 0.03 0.04 0.04 0.04 0.05
0.02 0.02 0.03 0.02 0.02 0.02 0.01 0.01 0.01 0.01 0.01 0.02 0.02 0.02 0.02 0.02 0.02 0.03 0.03 0.03 0.03 0.02 0.02 0.02 0.02 0.02 0.02 0.01 0.00 0.00 0.01 0.02 0.04 0.02 0.01 0.02 0.01 0.01 0.03 0.04 0.05 0.05 0.05
0.03 0.03 0.03 0.04 0.04 0.03 0.02 0.02 0.02 0.02 0.02 0.02 0.03 0.03 0.04 0.03 0.03 0.03 0.02 0.03 0.03 0.03 0.03 0.03 0.03 0.03 0.03 0.02 0.01 0.01 0.01 0.02 0.04 0.03 0.04 0.03 0.01 0.02 0.04 0.04 0.05 0.05 0.06
0.04 0.04 0.03 0.03 0.04 0.03 0.03 0.03 0.03 0.04 0.03 0.03 0.04 0.05 0.04 0.05 0.05 0.05 0.04 0.04 0.04 0.05 0.06 0.06 0.05 0.05 0.04 0.03 0.02 0.02 0.02 0.03 0.04 0.04 0.04 0.03 0.02 0.03 0.06 0.06 0.06 0.05 0.06
0.03 0.03 0.03 0.03 0.03 0.03 0.03 0.05 0.06 0.05 0.05 0.04 0.06 0.07 0.07 0.07 0.07 0.05 0.04 0.05 0.05 0.08 0.09 0.09 0.08 0.08 0.07 0.06 0.06 0.06 0.04 0.03 0.03 0.03 0.04 0.02 0.03 0.05 0.06 0.07 0.07 0.06 0.05
0.02 0.02 0.03 0.03 0.04 0.04 0.04 0.05 0.07 0.08 0.07 0.06 0.06 0.07 0.08 0.08 0.08 0.07 0.08 0.09 0.10 0.11 0.12 0.13 0.13 0.11 0.12 0.12 0.11 0.09 0.06 0.04 0.03 0.03 0.03 0.03 0.05 0.09 0.11 0.11 0.11 0.08 0.06
0.01 0.02 0.02 0.04 0.06 0.07 0.05 0.05 0.07 0.09 0.10 0.10 0.10 0.11 0.13 0.14 0.14 0.13 0.13 0.14 0.14 0.14 0.16 0.17 0.15 0.15 0.14 0.13 0.11 0.10 0.08 0.06 0.04 0.04 0.05 0.04 0.04 0.08 0.13 0.17 0.17 0.13 0.08
0.04 0.03 0.04 0.06 0.07 0.07 0.08 0.08 0.08 0.11 0.13 0.14 0.14 0.16 0.17 0.19 0.20 0.19 0.20 0.17 0.16 0.15 0.13 0.13 0.12 0.13 0.13 0.13 0.12 0.11 0.11 0.11 0.07 0.06 0.04 0.04 0.04 0.05 0.08 0.13 0.17 0.19 0.15
0.06 0.06 0.10 0.12 0.12 0.14 0.13 0.14 0.14 0.14 0.15 0.15 0.14 0.16 0.16 0.17 0.17 0.20 0.23 0.19 0.14 0.13 0.12 0.11 0.10 0.11 0.13 0.13 0.13 0.12 0.11 0.10 0.08 0.06 0.05 0.05 0.04 0.04 0.05 0.08 0.14 0.19 0.20
0.13 0.13 0.12 0.12 0.15 0.21 0.22 0.21 0.19 0.19 0.18 0.15 0.17 0.18 0.16 0.13 0.14 0.13 0.14 0.11 0.09 0.10 0.11 0.11 0.12 0.11 0.08 0.08 0.10 0.12 0.10 0.08 0.06 0.05 0.06 0.07 0.07 0.06 0.06 0.07 0.11 0.14 0.18
0.13 0.13 0.12 0.16 0.18 0.18 0.20 0.20 0.17 0.18 0.17 0.14 0.14 0.12 0.10 0.08 0.08 0.07 0.07 0.06 0.06 0.07 0.07 0.08 0.08 0.08 0.09 0.09 0.10 0.11 0.09 0.07 0.05 0.05 0.06 0.06 0.07 0.07 0.07 0.07 0.09 0.11 0.15
0.15 0.14 0.18 0.18 0.20 0.20 0.17 0.13 0.11 0.10 0.09 0.09 0.08 0.06 0.05 0.04 0.05 0.06 0.05 0.05 0.04 0.05 0.05 0.05 0.04 0.04 0.06 0.08 0.09 0.09 0.08 0.07 0.06 0.06 0.06 0.06 0.07 0.07 0.08 0.07 0.07 0.09 0.12
0.13 0.14 0.14 0.11 0.10 0.10 0.08 0.06 0.07 0.05 0.04 0.05 0.04 0.03 0.04 0.04 0.04 0.05 0.05 0.04 0.03 0.03 0.03 0.03 0.03 0.04 0.04 0.05 0.06 0.07 0.06 0.05 0.05 0.05 0.06 0.06 0.05 0.06 0.07 0.07 0.09 0.08 0.10
0.06 0.07 0.07 0.05 0.05 0.05 0.04 0.04 0.04 0.03 0.02 0.02 0.02 0.02 0.02 0.02 0.02 0.02 0.01 0.01 0.01 0.01 0.01 0.02 0.02 0.02 0.03 0.03 0.03 0.04 0.04 0.04 0.04 0.05 0.06 0.07 0.06 0.05 0.07 0.09 0.11 0.10 0.08
0.03 0.03 0.03 0.03 0.02 0.02 0.02 0.02 0.02 0.01 0.01 0.01 0.01 0.01 0.01 0.01 0.01 0.00 0.00 0.00 0.00 0.00 0.00 0.01 0.01 0.01 0.01 0.02 0.03 0.04 0.04 0.05 0.04 0.04 0.05 0.04 0.05 0.07 0.08 0.08 0.11 0.12 0.08
0.02 0.02 0.02 0.01 0.01 0.01 0.01 0.01 0.00 0.00 0.00 0.00 0.00 0.00 0.00 0.00 0.00 0.00 0.00 0.00 0.00 0.00 0.00 0.00 0.00 0.01 0.01 0.01 0.02 0.05 0.06 0.07 0.07 0.07 0.06 0.05 0.06 0.08 0.09 0.09 0.10 0.10 0.10
0.00 0.00 0.00 0.00 0.00 0.00 0.00 0.00 0.00 0.00 0.00 0.00 0.00 0.00 0.00 0.00 0.00 0.01 0.00 0.00 0.00 0.00 0.00 0.00 0.00 0.01 0.01 0.01 0.02 0.03 0.05 0.06 0.07 0.07 0.07 0.08 0.08 0.09 0.09 0.08 0.08 0.09 0.10
0.00 0.00 0.00 0.01 0.01 0.00 0.00 0.00 0.01 0.01 0.00 0.00 0.00 0.01 0.01 0.01 0.01 0.00 0.00 0.00 0.00 0.00 0.00 0.01 0.01 0.01 0.01 0.01 0.01 0.02 0.02 0.04 0.06 0.07 0.08 0.09 0.09 0.08 0.07 0.08 0.08 0.09 0.11
0.00 0.00 0.00 0.01 0.01 0.00 0.00 0.01 0.01 0.01 0.02 0.01 0.01 0.01 0.01 0.01 0.01 0.00 0.00 0.00 0.01 0.01 0.01 0.01 0.01 0.01 0.01 0.01 0.01 0.01 0.02 0.03 0.04 0.06 0.08 0.10 0.12 0.11 0.08 0.08 0.08 0.09 0.10
MSLP
1011.42 1011.52 1011.74 1012.07 1012.49 1012.91 1013.29 1013.57 1013.76 1013.86 1013.94 1014.05 1014.25 1014.57 1014.99 1015.48 1015.96 1016.39 1016.70 1016.88 1016.93 1016.90 1016.84 1016.80 1016.79 1016.83 1016.91 1016.99 1017.03 1017.04 1017.01 1016.95 1016.89 1016.88 1016.92 1017.03 1017.18 1017.37 1017.55 1017.70 1017.82 1017.92 1018.01
1011.34 1011.52 1011.81 1012.22 1012.69 1013.17 1013.57 1013.87 1014.05 1014.15 1014.22 1014.32 1014.51 1014.82 1015.24 1015.72 1016.20 1016.61 1016.91 1017.06 1017.11 1017.08 1017.02 1017.00 1017.03 1017.11 1017.22 1017.32 1017.38 1017.38 1017.32 1017.23 1017.14 1017.10 1017.13 1017.24 1017.41 1017.62 1017.83 1018.02 1018.17 1018.28 1018.37
1011.22 1011.48 1011.86 1012.35 1012.90 1013.43 1013.89 1014.24 1014.46 1014.58 1014.65 1014.76 1014.94 1015.23 1015.62 1016.05 1016.48 1016.84 1017.08 1017.20 1017.21 1017.18 1017.14 1017.15 1017.22 1017.34 1017.49 1017.62 1017.68 1017.66 1017.57 1017.45 1017.33 1017.26 1017.28 1017.39 1017.59 1017.83 1018.08 1018.31 1018.49 1018.62 1018.72
1011.12 1011.45 1011.91 1012.48 1013.10 1013.71 1014.24 1014.64 1014.92 1015.08 1015.18 1015.30 1015.47 1015.73 1016.07 1016.44 1016.79 1017.07 1017.24 1017.31 1017.30 1017.26 1017.25 1017.29 1017.40 1017.57 1017.74 1017.88 1017.93 1017.90 1017.78 1017.61 1017.46 1017.37 1017.38 1017.51 1017.73 1018.01 1018.30 1018.57 1018.79 1018.95 1019.07
1011.08 1011.47 1011.99 1012.62 1013.31 1013.98 1014.57 1015.03 1015.35 1015.56 1015.70 1015.83 1016.01 1016.24 1016.52 1016.82 1017.09 1017.30 1017.40 1017.43 1017.40 1017.37 1017.37 1017.45 1017.60 1017.80 1017.99 1018.12 1018.16 1018.09 1017.93 1017.73 1017.55 1017.44 1017.46 1017.60 1017.85 1018.17 1018.51 1018.81 1019.07 1019.26 1019.40
1011.15 1011.58 1012.14 1012.80 1013.52 1014.22 1014.84 1015.33 1015.69 1015.93 1016.10 1016.25 1016.42 1016.63 1016.87 1017.12 1017.34 1017.48 1017.55 1017.55 1017.51 1017.50 1017.54 1017.65 1017.84 1018.05 1018.24 1018.36 1018.36 1018.25 1018.05 1017.81 1017.61 1017.50 1017.52 1017.68 1017.96 1018.32 1018.69 1019.03 1019.32 1019.54 1019.70
1011.34 1011.79 1012.35 1013.01 1013.72 1014.41 1015.02 1015.50 1015.86 1016.11 1016.29 1016.45 1016.62 1016.82 1017.05 1017.27 1017.46 1017.58 1017.64 1017.64 1017.63 1017.65 1017.72 1017.87 1018.08 1018.30 1018.48 1018.57 1018.53 1018.37 1018.13 1017.86 1017.64 1017.53 1017.56 1017.75 1018.06 1018.44 1018.85 1019.21 1019.52 1019.76 1019.94
1011.65 1012.09 1012.64 1013.27 1013.92 1014.55 1015.10 1015.54 1015.86 1016.08 1016.24 1016.40 1016.57 1016.78 1017.01 1017.24 1017.43 1017.56 1017.63 1017.67 1017.70 1017.76 1017.88 1018.07 1018.29 1018.51 1018.67 1018.72 1018.64 1018.44 1018.16 1017.87 1017.64 1017.53 1017.58 1017.79 1018.13 1018.53 1018.96 1019.34 1019.66 1019.91 1020.10
1012.04 1012.47 1012.98 1013.55 1014.13 1014.66 1015.12 1015.46 1015.70 1015.87 1016.00 1016.14 1016.31 1016.53 1016.78 1017.02 1017.24 1017.41 1017.53 1017.61 1017.69 1017.80 1017.97 1018.18 1018.42 1018.63 1018.77 1018.78 1018.66 1018.43 1018.12 1017.82 1017.58 1017.48 1017.55 1017.79 1018.14 1018.57 1019.00 1019.39 1019.71 1019.96 1020.15
1012.47 1012.89 1013.36 1013.87 1014.35 1014.77 1015.10 1015.33 1015.47 1015.56 1015.64 1015.76 1015.93 1016.15 1016.42 1016.70 1016.95 1017.16 1017.32 1017.45 1017.58 1017.73 1017.93 1018.16 1018.41 1018.61 1018.72 1018.71 1018.57 1018.31 1017.99 1017.68 1017.45 1017.37 1017.46 1017.71 1018.08 1018.52 1018.96 1019.35 1019.67 1019.92 1020.12
1012.89 1013.31 1013.76 1014.20 1014.60 1014.91 1015.12 1015.23 1015.26 1015.27 1015.29 1015.37 1015.53 1015.77 1016.05 1016.35 1016.63 1016.87 1017.06 1017.22 1017.37 1017.55 1017.76 1018.00 1018.24 1018.43 1018.53 1018.50 1018.34 1018.08 1017.76 1017.46 1017.24 1017.18 1017.29 1017.55 1017.94 1018.38 1018.82 1019.22 1019.54 1019.79 1019.99
1013.26 1013.70 1014.14 1014.54 1014.87 1015.08 1015.19 1015.19 1015.14 1015.07 1015.04 1015.09 1015.24 1015.47 1015.76 1016.07 1016.36 1016.60 1016.80 1016.96 1017.12 1017.29 1017.50 1017.73 1017.95 1018.12 1018.21 1018.17 1018.00 1017.74 1017.43 1017.15 1016.95 1016.91 1017.03 1017.30 1017.69 1018.14 1018.59 1019.00 1019.33 1019.59 1019.80
1013.57 1014.04 1014.49 1014.87 1015.14 1015.29 1015.32 1015.25 1015.13 1015.00 1014.94 1014.97 1015.10 1015.33 1015.61 1015.92 1016.19 1016.43 1016.60 1016.74 1016.87 1017.01 1017.19 1017.38 1017.58 1017.73 1017.80 1017.75 1017.59 1017.34 1017.05 1016.78 1016.59 1016.56 1016.68 1016.96 1017.35 1017.80 1018.26 1018.68 1019.02 1019.31 1019.54
1013.81 1014.31 1014.77 1015.14 1015.39 1015.50 1015.49 1015.37 1015.21 1015.06 1014.98 1015.00 1015.13 1015.35 1015.63 1015.91 1016.17 1016.37 1016.51 1016.60 1016.68 1016.77 1016.89 1017.04 1017.20 1017.32 1017.37 1017.32 1017.16 1016.92 1016.63 1016.37 1016.20 1016.16 1016.27 1016.54 1016.92 1017.37 1017.83 1018.26 1018.63 1018.94 1019.21
1013.99 1014.50 1014.97 1015.34 1015.58 1015.68 1015.64 1015.52 1015.35 1015.20 1015.12 1015.14 1015.28 1015.49 1015.76 1016.02 1016.25 1016.42 1016.51 1016.56 1016.58 1016.62 1016.68 1016.78 1016.88 1016.97 1016.99 1016.93 1016.76 1016.52 1016.24 1015.98 1015.79 1015.73 1015.82 1016.06 1016.41 1016.84 1017.29 1017.73 1018.12 1018.47 1018.77
1014.13 1014.62 1015.08 1015.44 1015.67 1015.77 1015.74 1015.63 1015.47 1015.34 1015.28 1015.31 1015.45 1015.67 1015.93 1016.18 1016.39 1016.53 1016.59 1016.60 1016.58 1016.56 1016.58 1016.62 1016.68 1016.72 1016.71 1016.63 1016.45 1016.20 1015.91 1015.63 1015.41 1015.31 1015.35 1015.53 1015.84 1016.23 1016.66 1017.09 1017.50 1017.87 1018.21
1014.24 1014.70 1015.11 1015.45 1015.67 1015.77 1015.75 1015.66 1015.53 1015.42 1015.38 1015.43 1015.58 1015.80 1016.05 1016.30 1016.50 1016.63 1016.68 1016.67 1016.63 1016.59 1016.57 1016.57 1016.59 1016.59 1016.55 1016.44 1016.24 1015.97 1015.65 1015.34 1015.08 1014.92 1014.89 1014.99 1015.22 1015.55 1015.94 1016.35 1016.75 1017.13 1017.50
1014.35 1014.73 1015.09 1015.39 1015.59 1015.68 1015.68 1015.61 1015.50 1015.42 1015.39 1015.45 1015.60 1015.81 1016.06 1016.31 1016.51 1016.66 1016.72 1016.73 1016.70 1016.66 1016.63 1016.61 1016.59 1016.56 1016.49 1016.34 1016.12 1015.82 1015.48 1015.12 1014.80 1014.57 1014.46 1014.47 1014.61 1014.85 1015.16 1015.52 1015.89 1016.27 1016.64
1014.46 1014.75 1015.04 1015.28 1015.46 1015.55 1015.56 1015.50 1015.42 1015.35 1015.32 1015.37 1015.50 1015.70 1015.94 1016.18 1016.40 1016.57 1016.68 1016.73 1016.73 1016.72 1016.70 1016.67 1016.64 1016.59 1016.49 1016.32 1016.07 1015.75 1015.37 1014.98 1014.60 1014.30 1014.09 1014.00 1014.03 1014.16 1014.38 1014.65 1014.97 1015.31 1015.67
1014.56 1014.76 1014.98 1015.18 1015.33 1015.42 1015.43 1015.40 1015.32 1015.25 1015.21 1015.24 1015.33 1015.49 1015.70 1015.94 1016.17 1016.37 1016.52 1016.63 1016.69 1016.72 1016.73 1016.71 1016.68 1016.62 1016.50 1016.31 1016.05 1015.71 1015.32 1014.89 1014.47 1014.10 1013.81 1013.61 1013.52 1013.53 1013.63 1013.80 1014.03 1014.31 1014.63
1014.63 1014.76 1014.93 1015.09 1015.23 1015.32 1015.36 1015.34 1015.28 1015.20 1015.13 1015.11 1015.15 1015.25 1015.42 1015.63 1015.86 1016.08 1016.28 1016.44 1016.56 1016.64 1016.68 1016.70 1016.67 1016.60 1016.48 1016.29 1016.02 1015.68 1015.29 1014.86 1014.41 1013.99 1013.62 1013.32 1013.11 1012.99 1012.96 1013.01 1013.13 1013.32 1013.58
1014.67 1014.76 1014.89 1015.04 1015.19 1015.30 1015.36 1015.36 1015.31 1015.22 1015.13 1015.05 1015.02 1015.06 1015.16 1015.32 1015.53 1015.75 1015.98 1016.18 1016.35 1016.48 1016.56 1016.60 1016.58 1016.52 1016.40 1016.21 1015.96 1015.64 1015.27 1014.85 1014.40 1013.95 1013.53 1013.15 1012.83 1012.59 1012.42 1012.33 1012.33 1012.42 1012.59
1014.65 1014.73 1014.86 1015.02 1015.19 1015.34 1015.44 1015.47 1015.44 1015.35 1015.22 1015.10 1015.00 1014.95 1014.98 1015.08 1015.24 1015.45 1015.68 1015.91 1016.10 1016.26 1016.36 1016.41 1016.41 1016.35 1016.24 1016.07 1015.84 1015.56 1015.22 1014.84 1014.42 1013.97 1013.52 1013.09 1012.68 1012.33 1012.03 1011.81 1011.68 1011.65 1011.72
1014.59 1014.68 1014.83 1015.02 1015.22 1015.41 1015.56 1015.63 1015.63 1015.54 1015.40 1015.23 1015.07 1014.96 1014.91 1014.94 1015.05 1015.22 1015.43 1015.64 1015.84 1016.00 1016.11 1016.16 1016.15 1016.10 1015.99 1015.84 1015.65 1015.42 1015.13 1014.80 1014.43 1014.01 1013.56 1013.10 1012.63 1012.19 1011.79 1011.45 1011.19 1011.04 1011.00
1014.50 1014.62 1014.79 1015.01 1015.25 1015.48 1015.67 1015.78 1015.81 1015.75 1015.61 1015.41 1015.21 1015.04 1014.93 1014.89 1014.94 1015.06 1015.22 1015.41 1015.58 1015.72 1015.81 1015.85 1015.83 1015.77 1015.67 1015.54 1015.39 1015.20 1014.98 1014.71 1014.39 1014.02 1013.60 1013.13 1012.64 1012.14 1011.66 1011.22 1010.86 1010.59 1010.43
1014.40 1014.56 1014.75 1014.99 1015.25 1015.50 1015.72 1015.87 1015.94 1015.90 1015.77 1015.58 1015.36 1015.15 1014.99 1014.90 1014.89 1014.96 1015.07 1015.21 1015.34 1015.44 1015.50 1015.51 1015.47 1015.39 1015.29 1015.17 1015.04 1014.90 1014.73 1014.53 1014.27 1013.96 1013.58 1013.14 1012.65 1012.12 1011.60 1011.09 1010.64 1010.28 1010.02
Thickness
5830 5825 5811 5807 5803 5801 5799 5797 5794 5791 5789 5785 5782 5779 5776 5773 5770 5768 5766 5764 5762 5761 5760 5759 5758 5757 5756 5755 5754 5753 5753 5752 5751 5750 5750 5749 5748 5747 5747 5746 5747 5746 5743
5832 5822 5810 5806 5802 5799 5797 5795 5792 5789 5787 5783 5780 5777 5774 5771 5769 5766 5764 5762 5761 5760 5758 5757 5757 5756 5755 5754 5753 5752 5751 5750 5750 5749 5749 5748 5746 5745 5745 5745 5746 5745 5742
5828 5818 5808 5803 5800 5797 5794 5792 5790 5787 5784 5781 5778 5775 5772 5769 5767 5765 5763 5761 5759 5758 5757 5756 5755 5754 5753 5752 5751 5750 5749 5748 5748 5748 5749 5751 5747 5744 5743 5743 5743 5741 5740
5824 5815 5808 5800 5797 5794 5791 5789 5786 5783 5781 5778 5775 5772 5770 5767 5765 5763 5761 5759 5758 5756 5755 5754 5753 5752 5751 5750 5748 5748 5747 5746 5746 5747 5751 5752 5748 5743 5741 5741 5740 5739 5738
5820 5813 5805 5798 5794 5791 5788 5785 5783 5780 5777 5774 5772 5769 5767 5764 5762 5760 5758 5757 5756 5754 5753 5752 5751 5750 5748 5747 5746 5745 5745 5744 5745 5747 5750 5750 5747 5741 5740 5739 5738 5737 5736
5816 5810 5801 5794 5790 5787 5784 5782 5779 5777 5774 5771 5768 5766 5763 5761 5760 5758 5756 5755 5753 5752 5751 5749 5748 5747 5746 5745 5744 5743 5743 5743 5744 5750 5748 5748 5746 5740 5738 5737 5736 5735 5735
5814 5808 5797 5790 5786 5783 5780 5778 5775 5773 5770 5768 5765 5763 5761 5759 5757 5755 5754 5752 5751 5749 5748 5747 5745 5744 5743 5742 5742 5741 5741 5741 5745 5748 5746 5746 5743 5738 5737 5736 5735 5734 5733
5811 5805 5793 5785 5782 5778 5776 5773 5771 5769 5767 5764 5762 5760 5758 5756 5754 5752 5751 5749 5748 5747 5745 5744 5743 5741 5740 5739 5739 5739 5739 5739 5743 5746 5745 5744 5739 5736 5735 5734 5733 5732 5731
5807 5801 5791 5784 5778 5774 5771 5769 5767 5765 5763 5761 5758 5756 5755 5753 5751 5750 5748 5747 5745 5744 5743 5742 5741 5739 5738 5737 5736 5736 5736 5737 5741 5744 5744 5742 5737 5734 5733 5732 5732 5731 5730
5800 5796 5790 5784 5779 5774 5770 5765 5763 5761 5759 5757 5755 5754 5752 5750 5749 5747 5746 5745 5743 5742 5740 5739 5738 5737 5736 5735 5734 5734 5734 5735 5740 5743 5742 5740 5735 5733 5732 5731 5730 5729 5728
5791 5789 5787 5782 5776 5773 5770 5765 5761 5757 5756 5754 5753 5751 5749 5750 5750 5747 5746 5743 5741 5740 5738 5737 5736 5735 5734 5734 5733 5732 5732 5736 5741 5742 5741 5738 5734 5732 5731 5730 5729 5728 5727
5782 5782 5781 5778 5773 5770 5768 5763 5760 5758 5755 5753 5753 5750 5748 5747 5746 5746 5743 5740 5738 5737 5736 5735 5734 5733 5732 5735 5734 5732 5734 5736 5739 5740 5739 5735 5732 5730 5729 5728 5727 5727 5726
5779 5777 5775 5771 5768 5766 5763 5760 5757 5756 5753 5751 5749 5746 5744 5743 5743 5742 5741 5739 5737 5736 5736 5735 5733 5733 5733 5734 5734 5734 5734 5735 5736 5737 5738 5734 5730 5728 5727 5727 5727 5726 5725
5775 5773 5770 5765 5761 5758 5757 5756 5752 5751 5748 5747 5744 5741 5740 5738 5737 5737 5736 5736 5735 5734 5733 5732 5731 5731 5731 5731 5730 5731 5732 5731 5732 5733 5733 5731 5728 5727 5726 5725 5725 5725 5724
5768 5765 5762 5759 5755 5752 5750 5748 5748 5744 5742 5740 5737 5735 5733 5733 5732 5732 5731 5731 5731 5731 5730 5729 5729 5729 5728 5728 5727 5728 5728 5728 5729 5729 5731 5729 5727 5725 5725 5724 5724 5723 5723
5764 5760 5756 5753 5750 5746 5744 5741 5740 5738 5735 5733 5731 5730 5729 5729 5729 5728 5727 5727 5727 5727 5726 5725 5726 5726 5726 5726 5726 5726 5726 5726 5726 5726 5727 5728 5726 5725 5724 5723 5723 5722 5722
5759 5756 5751 5747 5745 5742 5738 5735 5734 5731 5729 5728 5726 5725 5725 5726 5725 5724 5724 5723 5723 5722 5720 5720 5721 5722 5722 5724 5725 5725 5725 5725 5726 5725 5725 5725 5725 5724 5724 5723 5722 5722 5722
5755 5750 5747 5744 5740 5737 5733 5731 5731 5728 5725 5724 5723 5722 5721 5721 5720 5720 5720 5719 5717 5717 5717 5717 5717 5717 5718 5719 5720 5721 5723 5724 5724 5724 5724 5724 5724 5725 5724 5723 5722 5722 5721
5749 5745 5741 5739 5736 5733 5731 5728 5727 5724 5723 5722 5721 5719 5718 5716 5715 5715 5714 5712 5711 5712 5712 5712 5714 5712 5713 5713 5715 5717 5720 5722 5722 5722 5723 5724 5724 5723 5723 5724 5722 5722 5721
5744 5741 5737 5734 5731 5730 5728 5725 5724 5722 5721 5719 5717 5714 5712 5711 5709 5709 5708 5706 5706 5707 5706 5705 5704 5705 5706 5708 5711 5715 5717 5719 5721 5722 5722 5723 5724 5723 5722 5723 5723 5723 5722
5738 5736 5733 5731 5728 5726 5725 5723 5720 5719 5717 5716 5713 5709 5707 5705 5704 5702 5703 5700 5699 5700 5697 5698 5698 5699 5700 5703 5703 5708 5714 5718 5720 5720 5722 5722 5724 5724 5722 5722 5722 5723 5724
5734 5733 5730 5727 5725 5723 5721 5719 5716 5714 5713 5711 5708 5704 5702 5700 5697 5698 5694 5694 5693 5690 5689 5689 5689 5690 5693 5695 5694 5696 5702 5710 5715 5720 5720 5720 5721 5722 5721 5721 5721 5722 5723
5730 5729 5728 5723 5721 5718 5716 5715 5711 5708 5706 5706 5702 5700 5696 5693 5691 5688 5687 5686 5684 5684 5685 5682 5681 5681 5683 5687 5689 5687 5688 5694 5702 5712 5714 5715 5716 5717 5718 5719 5720 5720 5721
5730 5728 5724 5720 5717 5714 5711 5710 5706 5703 5701 5699 5696 5695 5690 5686 5684 5682 5679 5678 5676 5677 5676 5675 5678 5676 5674 5677 5681 5682 5683 5684 5683 5693 5703 5708 5710 5711 5713 5715 5718 5719 5719
5730 5727 5722 5717 5713 5710 5707 5704 5699 5698 5696 5694 5690 5687 5682 5681 5678 5675 5673 5671 5669 5669 5669 5667 5667 5667 5669 5670 5672 5675 5676 5677 5679 5679 5687 5694 5700 5705 5708 5710 5713 5715 5716
5729 5726 5722 5715 5709 5706 5702 5699 5694 5690 5687 5684 5680 5679 5677 5677 5674 5671 5667 5664 5662 5662 5661 5659 5659 5660 5660 5661 5662 5666 5668 5669 5671 5674 5677 5682 5687 5696 5701 5705 5708 5710 5712